Погода в Максимовке

Украина / Тернопольская область     49°36′00″N   25°54′08″E
темп.,
°C
ветер,
м/с
пор.,
м/с
влажн.,
%
обл.,
%
осадки,
мм/ч
давл.,
гПа
погр.,
м
17 апреля, сб
сб1700:00+1з51095100 0.1 1017671
03:00+1з51197100 0.4 1018437
06:00+1з51097100 0.3 1018399
09:00+2з4897100 0.6 1019333
12:00+3зсз4899100 0.1 1020330
15:00+4сз3592100 0.3 1021519
18:00+6сз2379100 0.0 1020698
21:00+5с1180100 0.0 102115
18 апреля, вс
вс1800:00+3юв00869 0.0 102010
03:00+2с229085 0.0 102013
06:000ссз22956 0.0 102028
09:00+3с239087 0.0 1020267
12:00+9с116898 0.0 1018632
15:00+12с1154100 0.0 10171095
18:00+12всв3352100 0.0 10171419
21:00+7всв5987100 0.1 1018235
19 апреля, пн
пн1900:00+6в3693100 0.0 1018170
03:00+5в2494100 0.0 101879
06:00+6всв3591100 0.0 1017139
09:00+6в3681100 0.0 1017290
12:00+11в4454100 0.0 10161272
15:00+13в4445100 0.0 10141962
18:00+11всв5660100 0.1 1013901
21:00+7всв4878100 0.1 1014263
20 апреля, вт
вт2000:00+6ссв2381100 0.0 101252
03:00+4ссв2383100 0.0 101146
06:00+6ссв3883100 0.1 1010254
09:00+6с4782100 0.2 1009337
12:00+9ссз676674 0.1 10081145
15:00+10ссз7857100 0.3 10071700
18:00+9сз5867100 0.1 10071127
21:00+6зсз49855 0.1 1008194
21 апреля, ср
ср2100:00+4з37925 0.0 1008140
03:00+3з39935 0.0 1009199
06:00+3зюз41095100 0.0 1009237
09:00+8з697823 0.0 1010670
12:00+7зюз798697 1.3 1011688
15:00+11з71064100 1.8 10111611
18:00+11з5867100 0.9 10121103
21:00+7зюз338399 1.0 101429